Terminal Aerodrome Forecast
Issued by NWS Quad Cities IA IL

Home | Current Version | Previous Version | Text Only | Print | Product List | Glossary On
Versions: 1 2 3 4 5 6 7 8 9 10 11 12 13 14 15 16
000
FTUS43 KDVN 242332
TAFMLI
TAF
KMLI 242332Z 2500/2524 27013KT P6SM SCT080
     FM250200 29007KT P6SM SKC
     FM251600 29011G19KT P6SM FEW050=

USA.gov is the U.S. government's official web portal to all federal, state and local government web resources and services.